Location: Cudham
(51.3000°N, 0.0667°E)
Time: 00:07:15
(UTC+00:00)

Cosmos 1536 - Pass Details

Date: 19 May 2025
Orbit: 494 x 518 km, 82.5° (Epoch: 18 June)

Event Time Altitude Azimuth Distance (km) Brightness Sun altitude
Rises 21:29:58 0° 354° (N) 2,645 7.5 -11.9°
Reaches altitude 10° 21:32:13 10° 2° (N) 1,749 6.2 -12.1°
Maximum altitude 21:35:52 42° 74° (ENE) 742 3.3 -12.4°
Enters shadow 21:38:06 20° 136° (SE) 1,213 3.9 -12.6°
